Weather History for KCSM - September, 2013

Change the Weather History Date:

Sunday, September 22, 2013

  Actual Average Record
Temperature  
Mean Temperature 68 °F -  
Max Temperature 84 °F 81 °F 96 °F (2000)
Min Temperature 55 °F 57 °F 44 °F (1999)
Cooling Degree Days 4    
Growing Degree Days 18 (Base 50)    
Moisture  
Dew Point 47 °F    
Average Humidity 48    
Maximum Humidity 77    
Minimum Humidity 24    
Precipitation  
Precipitation 0.00 in - - ()
Sea Level Pressure  
Sea Level Pressure 29.86 in    
Wind  
Wind Speed 10 mph (SSE)    
Max Wind Speed 18 mph    
Max Gust Speed 24 mph    
Visibility 10 miles    
Events      
Averages and records for this station are not official NWS values.
T = Trace of Precipitation, MM = Missing Value Source: NWS Daily Summary

Daily Weather History Graph

Daily Weather History Graph

Search for Another Location

Airport or City:

Trip Planner

Search our weather history database for the weather conditions in past years. The results will help you decide how hot, cold, wet, or windy it might be!

Date:

Astronomy

Sep. 22, 2013 Rise Set
Actual Time 7:25 AM CDT 7:33 PM CDT
Civil Twilight 6:59 AM CDT 7:58 PM CDT
Nautical Twilight 6:29 AM CDT 8:28 PM CDT
Astronomical Twilight 5:59 AM CDT 8:58 PM CDT
Moon 9:33 PM CDT (9/22) 10:38 AM CDT (9/22)
Length of Visible Light 12h 58m
Length of Day
12h 08m
Waning Gibbous, 88% of the Moon is Illuminated
Sep 22
Waning Gibbous
Sep 26
Last Quarter
Oct 4
New
Oct 11
First Quarter
Oct 18
Full

Hourly Weather History & Observations

Time (CDT) Temp. Dew Point Humidity Pressure Visibility Wind Dir Wind Speed Gust Speed Precip Events Conditions
12:53 AM 62.1 °F 48.0 °F 60% 29.91 in 10.0 mi SE 6.9 mph - N/A   Clear
1:53 AM 61.0 °F 48.0 °F 62% 29.91 in 10.0 mi SSE 6.9 mph - N/A   Clear
2:53 AM 57.9 °F 48.9 °F 72% 29.91 in 10.0 mi South 5.8 mph - N/A   Clear
3:53 AM 55.9 °F 48.9 °F 77% 29.91 in 10.0 mi South 6.9 mph - N/A   Clear
4:53 AM 55.9 °F 48.9 °F 77% 29.90 in 10.0 mi South 8.1 mph - N/A   Clear
5:53 AM 57.0 °F 48.0 °F 72% 29.89 in 10.0 mi South 8.1 mph - N/A   Clear
6:53 AM 57.0 °F 48.0 °F 72% 29.90 in 10.0 mi South 8.1 mph - N/A   Clear
7:53 AM 57.0 °F 48.9 °F 74% 29.91 in 10.0 mi South 6.9 mph - N/A   Clear
8:53 AM 64.0 °F 48.9 °F 58% 29.92 in 10.0 mi South 11.5 mph - N/A   Clear
9:53 AM 69.1 °F 48.9 °F 49% 29.93 in 10.0 mi SSE 13.8 mph - N/A   Clear
10:53 AM 73.0 °F 46.0 °F 38% 29.92 in 10.0 mi South 17.3 mph - N/A   Clear
11:53 AM 75.9 °F 45.0 °F 33% 29.91 in 10.0 mi SSE 18.4 mph - N/A   Clear
12:53 PM 80.1 °F 43.0 °F 27% 29.88 in 10.0 mi South 17.3 mph 21.9 mph N/A   Clear
1:53 PM 82.0 °F 43.0 °F 25% 29.86 in 10.0 mi SSE 13.8 mph 23.0 mph N/A   Clear
2:53 PM 82.0 °F 43.0 °F 25% 29.83 in 10.0 mi South 17.3 mph - N/A   Clear
3:53 PM 82.9 °F 43.0 °F 24% 29.81 in 10.0 mi SE 12.7 mph 24.2 mph N/A   Clear
4:53 PM 82.9 °F 44.1 °F 25% 29.78 in 10.0 mi SSE 18.4 mph 23.0 mph N/A   Clear
5:53 PM 81.0 °F 43.0 °F 26% 29.78 in 10.0 mi SSE 16.1 mph 24.2 mph N/A   Clear
6:53 PM 79.0 °F 45.0 °F 30% 29.78 in 10.0 mi SSE 15.0 mph - N/A   Clear
7:53 PM 73.9 °F 46.9 °F 38% 29.78 in 10.0 mi SSE 10.4 mph - N/A   Clear
8:53 PM 71.1 °F 48.9 °F 45% 29.79 in 10.0 mi SSE 11.5 mph - N/A   Clear
9:53 PM 68.0 °F 48.0 °F 49% 29.80 in 10.0 mi SSE 10.4 mph - N/A   Clear
10:53 PM 66.0 °F 46.9 °F 50% 29.79 in 10.0 mi SSE 11.5 mph - N/A   Clear
11:53 PM 64.9 °F 46.0 °F 50% 29.77 in 10.0 mi SSE 16.1 mph - N/A   Clear